Time,TemperatureF,DewpointF,PressureIn,WindDirection,WindDirectionDegrees,WindSpeedMPH,WindSpeedGustMPH,Humidity,HourlyPrecipIn,Conditions,Clouds,dailyrainin,SoftwareType,DateUTC
2013-04-30 00:01:00,54.0,50.0,29.93,SE,128,0.0,0.0,85,0.00,,,0.05,weatherlink.com 1.10,2013-04-30 04:01:00,
2013-04-30 00:16:00,53.8,49.0,29.93,SE,128,0.0,0.0,85,0.00,,,0.00,weatherlink.com 1.10,2013-04-30 04:16:00,
2013-04-30 00:31:00,53.9,50.0,29.93,SE,128,0.0,1.0,85,0.00,,,0.00,weatherlink.com 1.10,2013-04-30 04:31:00,
2013-04-30 00:46:00,54.0,50.0,29.93,SE,128,0.0,0.0,85,0.01,,,0.01,weatherlink.com 1.10,2013-04-30 04:46:00,
2013-04-30 01:01:00,54.3,50.0,29.93,SE,128,0.0,0.0,84,0.01,,,0.01,weatherlink.com 1.10,2013-04-30 05:01:00,
2013-04-30 01:16:00,54.4,50.0,29.93,SE,128,0.0,0.0,84,0.01,,,0.01,weatherlink.com 1.10,2013-04-30 05:16:00,
2013-04-30 01:31:00,54.1,49.0,29.93,SE,128,0.0,0.0,84,0.01,,,0.01,weatherlink.com 1.10,2013-04-30 05:31:00,
2013-04-30 01:46:00,53.1,49.0,29.93,SE,128,0.0,0.0,87,0.00,,,0.01,weatherlink.com 1.10,2013-04-30 05:46:00,
2013-04-30 02:01:00,52.6,50.0,29.92,SE,128,0.0,0.0,89,0.00,,,0.01,weatherlink.com 1.10,2013-04-30 06:01:00,
2013-04-30 02:16:00,52.3,50.0,29.91,East,91,0.0,1.0,91,0.00,,,0.01,weatherlink.com 1.10,2013-04-30 06:16:00,
2013-04-30 02:31:00,52.4,50.0,29.91,East,91,0.0,0.0,91,0.00,,,0.01,weatherlink.com 1.10,2013-04-30 06:31:00,
2013-04-30 02:46:00,52.0,50.0,29.91,East,91,0.0,0.0,91,0.00,,,0.01,weatherlink.com 1.10,2013-04-30 06:46:00,
2013-04-30 03:01:00,51.6,50.0,29.91,East,90,0.0,0.0,93,0.00,,,0.01,weatherlink.com 1.10,2013-04-30 07:01:00,
2013-04-30 03:16:00,51.4,50.0,29.91,East,91,0.0,0.0,93,0.00,,,0.01,weatherlink.com 1.10,2013-04-30 07:16:00,
2013-04-30 03:35:00,50.8,49.0,29.92,East,91,0.0,0.0,94,0.00,,,0.01,weatherlink.com 1.10,2013-04-30 07:35:00,
2013-04-30 03:46:00,50.7,49.0,29.92,East,90,0.0,0.0,95,0.00,,,0.01,weatherlink.com 1.10,2013-04-30 07:46:00,
2013-04-30 04:01:00,49.7,48.0,29.92,East,91,0.0,0.0,94,0.00,,,0.01,weatherlink.com 1.10,2013-04-30 08:01:00,
2013-04-30 04:16:00,49.7,49.0,29.92,East,91,0.0,0.0,96,0.00,,,0.01,weatherlink.com 1.10,2013-04-30 08:16:00,
2013-04-30 04:31:00,49.9,49.0,29.93,East,91,0.0,0.0,96,0.00,,,0.01,weatherlink.com 1.10,2013-04-30 08:31:00,
2013-04-30 04:46:00,49.8,49.0,29.93,East,92,0.0,0.0,97,0.00,,,0.01,weatherlink.com 1.10,2013-04-30 08:46:00,
2013-04-30 05:01:00,49.4,48.0,29.93,East,91,0.0,0.0,96,0.00,,,0.01,weatherlink.com 1.10,2013-04-30 09:01:00,
2013-04-30 05:16:00,49.3,49.0,29.93,East,91,0.0,0.0,97,0.00,,,0.01,weatherlink.com 1.10,2013-04-30 09:16:00,
2013-04-30 05:31:00,49.2,48.0,29.94,ESE,104,0.0,0.0,97,0.00,,,0.01,weatherlink.com 1.10,2013-04-30 09:31:00,
2013-04-30 05:46:00,49.0,48.0,29.94,East,101,0.0,0.0,97,0.00,,,0.01,weatherlink.com 1.10,2013-04-30 09:46:00,
2013-04-30 06:01:00,48.7,48.0,29.94,ESE,103,0.0,0.0,97,0.00,,,0.01,weatherlink.com 1.10,2013-04-30 10:01:00,
2013-04-30 06:16:00,48.6,48.0,29.95,East,101,0.0,0.0,97,0.00,,,0.01,weatherlink.com 1.10,2013-04-30 10:16:00,
2013-04-30 06:31:00,48.7,48.0,29.95,East,101,0.0,0.0,97,0.00,,,0.01,weatherlink.com 1.10,2013-04-30 10:31:00,
2013-04-30 06:46:00,48.7,48.0,29.96,East,101,0.0,0.0,97,0.00,,,0.01,weatherlink.com 1.10,2013-04-30 10:46:00,
2013-04-30 07:01:00,48.5,48.0,29.97,East,101,0.0,0.0,97,0.00,,,0.01,weatherlink.com 1.10,2013-04-30 11:01:00,
2013-04-30 07:16:00,48.4,48.0,29.97,East,101,0.0,0.0,97,0.00,,,0.01,weatherlink.com 1.10,2013-04-30 11:16:00,
2013-04-30 07:31:00,48.8,48.0,29.98,East,101,0.0,0.0,97,0.00,,,0.01,weatherlink.com 1.10,2013-04-30 11:31:00,
2013-04-30 07:46:00,49.3,49.0,29.99,East,101,0.0,0.0,97,0.00,,,0.01,weatherlink.com 1.10,2013-04-30 11:46:00,
2013-04-30 08:01:00,50.0,49.0,29.99,East,101,0.0,0.0,96,0.00,,,0.01,weatherlink.com 1.10,2013-04-30 12:01:00,
2013-04-30 08:16:00,51.1,50.0,30.00,East,101,0.0,0.0,95,0.00,,,0.01,weatherlink.com 1.10,2013-04-30 12:16:00,
2013-04-30 08:31:00,52.4,51.0,30.00,East,101,0.0,2.0,93,0.01,,,0.02,weatherlink.com 1.10,2013-04-30 12:31:00,
2013-04-30 08:47:00,53.9,51.0,30.00,East,101,0.0,1.0,91,0.01,,,0.02,weatherlink.com 1.10,2013-04-30 12:47:00,
2013-04-30 09:02:00,55.1,52.0,30.00,East,101,0.0,0.0,90,0.01,,,0.02,weatherlink.com 1.10,2013-04-30 13:02:00,
2013-04-30 09:17:00,57.0,53.0,30.01,East,100,0.0,0.0,87,0.01,,,0.02,weatherlink.com 1.10,2013-04-30 13:17:00,
2013-04-30 09:32:00,58.1,53.0,30.00,East,101,0.0,0.0,84,0.00,,,0.02,weatherlink.com 1.10,2013-04-30 13:32:00,
2013-04-30 09:47:00,60.1,54.0,30.00,ENE,60,0.0,0.0,79,0.00,,,0.02,weatherlink.com 1.10,2013-04-30 13:47:00,
2013-04-30 10:02:00,62.2,54.0,30.01,ENE,61,0.0,0.0,75,0.00,,,0.02,weatherlink.com 1.10,2013-04-30 14:02:00,
2013-04-30 10:17:00,64.7,55.0,30.01,ESE,114,0.0,0.0,72,0.00,,,0.02,weatherlink.com 1.10,2013-04-30 14:17:00,
2013-04-30 10:32:00,66.5,55.0,30.00,WNW,295,0.0,0.0,67,0.00,,,0.02,weatherlink.com 1.10,2013-04-30 14:32:00,
2013-04-30 10:47:00,67.8,55.0,30.00,ESE,105,0.0,2.0,63,0.00,,,0.02,weatherlink.com 1.10,2013-04-30 14:47:00,
2013-04-30 11:02:00,69.4,55.0,30.00,WSW,239,0.0,2.0,61,0.00,,,0.02,weatherlink.com 1.10,2013-04-30 15:02:00,
2013-04-30 11:17:00,71.2,55.0,30.00,SW,215,1.0,3.0,56,0.00,,,0.02,weatherlink.com 1.10,2013-04-30 15:17:00,
2013-04-30 11:32:00,73.7,54.0,30.00,SE,124,0.0,3.0,50,0.00,,,0.02,weatherlink.com 1.10,2013-04-30 15:32:00,
2013-04-30 11:47:00,74.4,54.0,30.00,SW,230,1.0,4.0,50,0.00,,,0.02,weatherlink.com 1.10,2013-04-30 15:47:00,
2013-04-30 12:02:00,74.6,54.0,30.00,NNE,25,1.0,4.0,49,0.00,,,0.02,weatherlink.com 1.10,2013-04-30 16:02:00,
2013-04-30 12:17:00,74.8,54.0,29.99,NNW,336,2.0,2.0,48,0.00,,,0.02,weatherlink.com 1.10,2013-04-30 16:17:00,
2013-04-30 12:32:00,72.8,54.0,29.98,East,79,0.0,0.0,51,0.00,,,0.02,weatherlink.com 1.10,2013-04-30 16:32:00,
2013-04-30 12:47:00,73.0,53.0,29.98,NE,56,0.0,3.0,50,0.00,,,0.02,weatherlink.com 1.10,2013-04-30 16:47:00,
2013-04-30 13:02:00,73.4,54.0,29.97,NNW,342,1.0,2.0,50,0.00,,,0.02,weatherlink.com 1.10,2013-04-30 17:02:00,
2013-04-30 13:17:00,74.1,54.0,29.97,West,277,0.0,2.0,49,0.00,,,0.02,weatherlink.com 1.10,2013-04-30 17:17:00,
2013-04-30 13:32:00,76.1,54.0,29.96,East,81,1.0,3.0,46,0.00,,,0.02,weatherlink.com 1.10,2013-04-30 17:32:00,
2013-04-30 13:47:00,76.8,55.0,29.95,ESE,107,1.0,3.0,47,0.00,,,0.02,weatherlink.com 1.10,2013-04-30 17:47:00,
2013-04-30 14:02:00,77.4,53.0,29.94,ESE,113,2.0,3.0,43,0.00,,,0.02,weatherlink.com 1.10,2013-04-30 18:02:00,
2013-04-30 14:18:00,78.3,54.0,29.95,NNW,336,1.0,4.0,43,0.00,,,0.02,weatherlink.com 1.10,2013-04-30 18:18:00,
2013-04-30 14:33:00,76.8,53.0,29.95,SSW,195,0.0,3.0,43,0.00,,,0.02,weatherlink.com 1.10,2013-04-30 18:33:00,
2013-04-30 14:48:00,77.1,52.0,29.95,SE,131,0.0,3.0,42,0.00,,,0.02,weatherlink.com 1.10,2013-04-30 18:48:00,
2013-04-30 15:03:00,75.2,53.0,29.95,ESE,118,0.0,1.0,46,0.00,,,0.02,weatherlink.com 1.10,2013-04-30 19:03:00,
2013-04-30 15:18:00,74.2,51.0,29.95,SE,134,0.0,1.0,45,0.01,,,0.03,weatherlink.com 1.10,2013-04-30 19:18:00,
2013-04-30 15:33:00,73.3,53.0,29.95,SW,229,2.0,3.0,49,0.01,,,0.03,weatherlink.com 1.10,2013-04-30 19:33:00,
2013-04-30 15:48:00,72.8,56.0,29.95,West,277,0.0,1.0,56,0.01,,,0.03,weatherlink.com 1.10,2013-04-30 19:48:00,
2013-04-30 16:03:00,76.9,54.0,29.95,East,79,2.0,6.0,45,0.01,,,0.03,weatherlink.com 1.10,2013-04-30 20:03:00,
2013-04-30 16:18:00,78.6,54.0,29.95,SE,132,1.0,3.0,43,0.00,,,0.03,weatherlink.com 1.10,2013-04-30 20:18:00,
2013-04-30 16:33:00,77.9,54.0,29.95,WNW,301,2.0,5.0,43,0.00,,,0.03,weatherlink.com 1.10,2013-04-30 20:33:00,
2013-04-30 16:48:00,77.7,55.0,29.95,ENE,60,0.0,5.0,45,0.00,,,0.03,weatherlink.com 1.10,2013-04-30 20:48:00,
2013-04-30 17:03:00,75.0,54.0,29.95,NE,56,1.0,5.0,48,0.00,,,0.03,weatherlink.com 1.10,2013-04-30 21:03:00,
2013-04-30 17:18:00,73.5,54.0,29.96,NE,55,0.0,2.0,51,0.00,,,0.03,weatherlink.com 1.10,2013-04-30 21:18:00,
2013-04-30 17:33:00,73.2,54.0,29.96,SE,124,1.0,2.0,51,0.00,,,0.03,weatherlink.com 1.10,2013-04-30 21:33:00,
2013-04-30 17:48:00,72.3,54.0,29.95,WNW,290,0.0,3.0,52,0.00,,,0.03,weatherlink.com 1.10,2013-04-30 21:48:00,
2013-04-30 18:03:00,72.0,54.0,29.96,SE,130,0.0,2.0,54,0.00,,,0.03,weatherlink.com 1.10,2013-04-30 22:03:00,
2013-04-30 18:18:00,72.4,55.0,29.96,ESE,116,1.0,3.0,55,0.00,,,0.03,weatherlink.com 1.10,2013-04-30 22:18:00,
2013-04-30 18:33:00,71.5,56.0,29.96,NE,45,0.0,3.0,58,0.00,,,0.03,weatherlink.com 1.10,2013-04-30 22:33:00,
2013-04-30 18:48:00,70.3,54.0,29.96,NW,314,0.0,3.0,56,0.00,,,0.03,weatherlink.com 1.10,2013-04-30 22:48:00,
2013-04-30 19:03:00,69.7,55.0,29.97,SSE,158,0.0,1.0,60,0.00,,,0.03,weatherlink.com 1.10,2013-04-30 23:03:00,
2013-04-30 19:18:00,68.7,55.0,29.97,SE,131,0.0,1.0,61,0.00,,,0.03,weatherlink.com 1.10,2013-04-30 23:18:00,
2013-04-30 19:33:00,67.8,55.0,29.98,SE,131,0.0,1.0,63,0.00,,,0.03,weatherlink.com 1.10,2013-04-30 23:33:00,
2013-04-30 19:48:00,66.9,55.0,29.98,SE,131,0.0,0.0,65,0.00,,,0.03,weatherlink.com 1.10,2013-04-30 23:48:00,
2013-04-30 20:03:00,65.9,55.0,29.98,SE,131,0.0,0.0,67,0.00,,,0.03,weatherlink.com 1.10,2013-05-01 00:03:00,
2013-04-30 20:18:00,65.0,54.0,29.99,SE,131,0.0,0.0,68,0.00,,,0.03,weatherlink.com 1.10,2013-05-01 00:18:00,
2013-04-30 20:33:00,64.2,54.0,29.99,SE,131,0.0,0.0,69,0.00,,,0.03,weatherlink.com 1.10,2013-05-01 00:33:00,
2013-04-30 20:48:00,63.4,53.0,30.00,SE,131,0.0,0.0,70,0.00,,,0.03,weatherlink.com 1.10,2013-05-01 00:48:00,
2013-04-30 21:03:00,63.0,54.0,30.00,North,354,0.0,0.0,72,0.00,,,0.03,weatherlink.com 1.10,2013-05-01 01:03:00,
2013-04-30 21:18:00,62.5,54.0,30.01,North,354,0.0,0.0,73,0.00,,,0.03,weatherlink.com 1.10,2013-05-01 01:18:00,
2013-04-30 21:33:00,61.9,54.0,30.01,North,354,0.0,0.0,74,0.00,,,0.03,weatherlink.com 1.10,2013-05-01 01:33:00,
2013-04-30 21:48:00,60.9,54.0,30.02,North,352,0.0,0.0,77,0.00,,,0.03,weatherlink.com 1.10,2013-05-01 01:48:00,
2013-04-30 22:03:00,61.8,55.0,30.03,NNW,341,0.0,1.0,77,0.00,,,0.03,weatherlink.com 1.10,2013-05-01 02:03:00,
2013-04-30 22:18:00,61.7,55.0,30.03,East,80,0.0,1.0,78,0.00,,,0.03,weatherlink.com 1.10,2013-05-01 02:18:00,
2013-04-30 22:33:00,61.4,55.0,30.04,SSW,199,0.0,2.0,80,0.00,,,0.03,weatherlink.com 1.10,2013-05-01 02:33:00,
2013-04-30 22:48:00,60.9,55.0,30.04,SSW,200,0.0,0.0,81,0.00,,,0.03,weatherlink.com 1.10,2013-05-01 02:48:00,
2013-04-30 23:03:00,60.6,55.0,30.04,SW,224,0.0,0.0,81,0.00,,,0.03,weatherlink.com 1.10,2013-05-01 03:03:00,
2013-04-30 23:18:00,60.6,55.0,30.05,ESE,121,0.0,3.0,81,0.00,,,0.03,weatherlink.com 1.10,2013-05-01 03:18:00,
2013-04-30 23:33:00,60.7,55.0,30.05,NNW,346,0.0,2.0,81,0.00,,,0.03,weatherlink.com 1.10,2013-05-01 03:33:00,
2013-04-30 23:48:00,61.2,55.0,30.05,WNW,292,0.0,2.0,80,0.00,,,0.03,weatherlink.com 1.10,2013-05-01 03:48:00,